Regional Weather Roundup
Issued by NWS Wakefield, VA

Home | Current Version | Previous Version | Graphics & Text | Print | Product List | Glossary On
Versions: 1 2 3 4 5 6 7 8 9 10 11 12 13 14 15 16 17 18 19 20 21 22 23 24 25 26 27 28 29 30 31 32 33 34 35 36 37 38 39 40 41 42 43 44 45 46 47 48 49 50
000
ASUS41 KAKQ 281410
RWRAKQ

REGIONAL WEATHER ROUNDUP
NATIONAL WEATHER SERVICE WAKEFIELD VA
1000 AM EDT FRI APR 28 2017

Note: "fair" indicates few or no clouds below 12,000 feet with no
significant weather and/or obstructions to visibility. * = Denotes
station may not report precipitation (e.g., rain,snow,etc.),
thunder or fog.

VAZ042-051-052>054-056-281500-
NORTHERN VIRGINIA

CITY           SKY/WX    TMP DP  RH WIND       PRES   REMARKS
WASH NATIONAL  SUNNY     76  61  59 N8        30.03S
DULLES         MOSUNNY   72  58  61 NW3       30.03S
FORT BELVOIR   SUNNY     76  59  54 N5        30.03R
QUANTICO       MOSUNNY   70  66  87 S5        30.04R
FREDERICKSBRG* SUNNY     75  62  65 E5        30.02S
STAFFORD*      SUNNY     74  64  69 E5        30.06F
WARRENTON      SUNNY     75  59  55 NE3       30.03R
CULPEPER*      SUNNY     74  62  64 E5        30.04R
MANASSAS*        N/A     74  61  63 NE6       30.04R
LEESBURG*      SUNNY     73  61  64 N7        30.04S
WINCHESTER     SUNNY     68  55  64 SE5       30.03F
FRONT ROYAL*   SUNNY     72  59  64 CALM      30.04R
LURAY*         SUNNY     70  63  78 CALM      30.05R
$$

VAZ048-049-060>072-079>083-281500-
CENTRAL AND SOUTH CENTRAL VIRGINIA

CITY           SKY/WX    TMP DP  RH WIND       PRES   REMARKS
RICHMOND       PTSUNNY   74  68  81 SW7       30.04R
CHESTERFIELD*  FAIR     N/A N/A N/A SW6       30.05R
PETERSBURG*    PTSUNNY   75  65  70 S8        30.05S
HANOVER        PTSUNNY   73  65  75 CALM      30.05R
TAPPAHANNOCK*  PTSUNNY   74  68  83 SW7       30.05R
QUINTON*       CLOUDY    73  69  85 SW6       30.05R
CHARLOTTSVILLE SUNNY     75  63  66 CALM      30.03R
GORDONSVILLE*  SUNNY     75  60  59 CALM      30.03R
ORANGE*        SUNNY     73  61  64 CALM      30.03R
LOUISA*        SUNNY     77  66  69 CALM      30.03S
BUMPASS*       FAIR      73  64  74 CALM      30.04S
FARMVILLE*     SUNNY     73  68  86 SW3       30.04S
CREWE*         FAIR      73  73  99 CALM      30.05S
FORT PICKETT*  CLOUDY    73  68  86 SW7       30.06R
CHASE CITY*    CLOUDY    71  69  94 CALM      30.06S
CLARKSVILLE*   FAIR      73  68  83 SW8       30.05R
SOUTH HILL*    PTSUNNY   75  68  79 SW9       30.11S
LAWRENCEVILLE* FAIR      75  67  76 MISG      30.05S
EMPORIA*       PTSUNNY   73  68  83 S7        30.07R
$$

VAZ088>098-281500-
SOUTHEAST VIRGINIA

CITY           SKY/WX    TMP DP  RH WIND       PRES   REMARKS
NORFOLK        CLOUDY    76  71  85 W7        30.05R
VIRGINIA BEACH CLOUDY    76  70  82 SW13      30.05R
NORFOLK NAVAL  CLOUDY    76  71  85 SW7       30.06R
WEST POINT*    PTSUNNY   76  67  73 SW7       30.06R
SALUDA*        CLOUDY    74  68  83 W6        30.04R
NEWPORT NEWS   CLOUDY    76  69  79 SW9       30.05R
LANGLEY AFB    PTSUNNY   75  71  86 W10       30.04R
FORT EUSTIS    PTSUNNY   75  68  78 W6        30.03S
WILLIAMSBURG*  SUNNY     77  70  78 W6        30.06R
HR EXEC AP*    PTSUNNY   75  70  83 SW8       30.03R
FRANKLIN*      CLOUDY    75  70  84 W6        30.06R
US460-WAKEFLD  CLOUDY    74  69  85 SW7       30.05R
$$

VAZ020-022-025-037-045-281500-
WEST CENTRAL AND SOUTHWEST VIRGINIA

CITY           SKY/WX    TMP DP  RH WIND       PRES   REMARKS
STAUNTON*      SUNNY     66  60  81 CALM      30.08S
WAYNESBORO*    SUNNY     67  63  87 CALM      30.07S
HOT SPRINGS VA SUNNY     61  50  67 W6        30.14R
LYNCHBURG      SUNNY     71  61  70 CALM      30.07R
DANVILLE       MOSUNNY   70  68  93 SW5       30.06S
SOUTH BOSTON*  CLOUDY    70  68  95 CALM      30.06S
MARTINSVILLE   CLOUDY    67  64  89 CALM      30.09S
ROANOKE        MOSUNNY   63  61  93 CALM      30.09R FOG
BLACKSBURG     FOG       58  57  97 CALM      30.14R VSB 1/4
DUBLIN*        FOG       58  56  92 CALM      30.12R VSB 1/4
MARION*        CLOUDY    61  60  96 CALM      30.13S
HILLSVILLE*    FOG       58  58 100 CALM      30.11R VSB 1/4
RICHLANDS*     FAIR      65  59  81 CALM      30.08F
WISE*          SUNNY     64  63  94 CALM      30.09S
ABINGDON*      MOSUNNY   64  64 100 SE5       30.08S
$$

MDZ021>025-VAZ099-100-281500-
SOUTHERN MARYLAND AND THE DELMARVA PENINSULA

CITY           SKY/WX    TMP DP  RH WIND       PRES   REMARKS
PATUXENT RIVER MOSUNNY   75  67  76 NW6       30.03R
BAY BRIDGE APT SUNNY     72  61  68 W3        30.03R HAZE
LEONARDTOWN    SUNNY     73  63  68 W3        30.05R
DOVER          SUNNY     75  75 100 NW8       30.01R
GEORGETOWN     SUNNY     76  63  64 NW6       30.03R
EASTON         SUNNY     75  63  64 NW3       30.07R
CAMBRIDGE      SUNNY     73  64  73 N6        30.03S
SALISBURY      MOSUNNY   74  66  76 W8        30.03R
OCEAN CITY     MOSUNNY   69  65  86 S8        30.04R
WALLOPS ISLAND PTSUNNY   69  68  96 S5        30.05R
ACCOMACK*      CLOUDY    73  68  85 SW7       30.05R
$$

NCZ012>017-030>032-281500-
NORTH CENTRAL AND EASTERN NORTH CAROLINA

CITY           SKY/WX    TMP DP  RH WIND       PRES   REMARKS
ROANOKE RAPIDS CLOUDY    77  72  83 SW7       30.06R
RALEIGH        MOSUNNY   77  68  73 SW7       30.07R
ELIZABETH CITY PTSUNNY   78  74  87 SW13G22   30.06R
AHOSKIE*         N/A     76  71  83 CALM      30.06R
EDENTON*       CLOUDY    78  72  81 SW7       30.07R
CURRITUCK*     CLOUDY    78  73  86 SW10G16   30.07R
KILL DEVIL HLS PTSUNNY   77  70  79 SW10G16   30.06S
MANTEO         PTSUNNY   77  70  79 SW20      30.08R
CAPE HATTERAS  CLOUDY    76  70  82 SW10      30.10R HAZE
TARBORO*       NOT AVBL
GOLDSBORO      PTSUNNY   79  75  89 SW10      30.05S
WASHINGTON     PTSUNNY   77  72  82 SW10      30.07R
GREENVILLE     CLOUDY    79  73  83 SW9G17    30.08R
NEW BERN       CLOUDY    79  73  82 SW12G22   30.08S
WILMINGTON     CLOUDY    79  73  82 S13       30.09R
$$

VAZ048-281500-
ELSEWHERE

CITY           SKY/WX    TMP DP  RH WIND       PRES   REMARKS
HARRISBURG PA  MOSUNNY   71  54  54 NW10      30.01R
BALTIMORE      MOSUNNY   75  59  57 W6        30.02R
ANNAPOLIS      SUNNY     74  60  61 NW5       30.02R
ANDREWS AFB    SUNNY     74  60  59 NW6       30.02S
PHILADELPHIA   MOSUNNY   73  61  65 SW8       30.00R
HENDERSON NC   SUNNY     73  65  77 SW8       30.06S
GREENSBORO     PTSUNNY   71  69  93 W8        30.06R
ROCKY MOUNT    CLOUDY    76  71  85 SW9       30.06S
$$

VAZ100-281500-
MARINE

STATION/POSITION TIME  TEMP    WIND        PRES    WAVE   SWELL
                       AIR SEA DIR/SP/G            HT/PER HT/PER
                 (UTC) (F)     (DEG/KT/KT) (MB)    (FT/S) (FT/S)
$$



USA.gov is the U.S. government's official web portal to all federal, state and local government web resources and services.